Location: Choisy
(48.7685°N, 2.4187°E)
Time: 11:46:22
(UTC+00:00)

ATLAS 3B R/B - Visible Passes

Search period start: 29 May 2022 00:00
Search period end: 08 June 2022 00:00
Orbit: 979 x 1215 km, 63.8° (Epoch: 21 May)

Date Brightness Start Highest point End Pass type
(mag) Time Alt. Az. Time Alt. Az. Time Alt. Az.
29 May 3.1 20:28:01 10° NW 20:35:19 68° NE 20:42:55 10° SE visible
29 May 3.8 22:19:09 10° NW 22:25:45 36° WSW 22:30:18 19° SSW visible
30 May 3.3 21:31:34 10° NW 21:38:42 54° WSW 21:44:31 17° SSE visible
30 May 4.9 23:25:40 10° W 23:27:58 12° WSW 23:30:17 10° WSW visible
31 May 3.0 20:44:08 10° NW 20:51:30 79° SW 20:58:47 11° SSE visible
31 May 4.6 22:36:12 10° WNW 22:41:17 20° WSW 22:46:02 11° SSW visible
01 Jun 4.1 21:48:06 10° NW 21:54:25 32° WSW 22:00:21 12° S visible
02 Jun 3.6 21:00:25 10° NW 21:07:25 48° WSW 21:14:38 10° S visible
03 Jun 3.2 20:12:57 10° NW 20:20:16 70° SW 20:27:50 10° SSE visible
03 Jun 4.8 22:05:24 10° WNW 22:09:53 17° WSW 22:14:26 10° SW visible
04 Jun 4.4 21:17:04 10° WNW 21:23:05 28° WSW 21:29:14 10° SSW visible
05 Jun 3.9 20:29:17 10° NW 20:36:08 42° WSW 20:43:10 10° S visible
06 Jun 5.0 21:34:46 10° WNW 21:38:29 15° WSW 21:42:14 10° SW visible
07 Jun 4.7 20:46:05 10° WNW 20:51:44 24° WSW 20:57:29 10° SSW visible
